Theta_e
303 303 303 303 303 304 303 303 302 302 302 302 303 303 303 303 303 305 307 309 310 311 311 311 311 311 310 310 310 310 309 309 308 308 308 309 309 308 309 309 310 311 310 309 308 308 308 307 308 308 308 311 315 317 317 318 319 317 315 314 313 314 313 314 315 316 316 317 316 315 318 320 329 338 342 343 346 347 347 346 345 343 342 344 347 348 349 350
303 303 303 303 303 303 303 304 303 303 302 302 303 303 303 303 302 303 304 306 308 310 311 311 311 310 310 311 311 310 310 309 308 308 310 311 309 309 309 309 309 310 310 309 308 308 308 308 308 308 310 314 316 317 317 318 318 317 316 314 313 314 314 314 315 315 315 316 316 315 317 319 323 330 337 345 347 348 350 349 348 348 348 348 348 348 350 350
302 303 303 303 303 303 303 303 304 303 303 302 302 303 303 303 303 303 303 304 306 308 310 311 311 310 310 311 311 311 310 309 309 312 315 315 314 312 309 309 309 310 309 308 307 307 308 308 308 309 312 316 316 317 317 317 318 317 316 315 314 314 313 314 315 315 316 315 316 316 316 318 318 322 335 345 346 349 352 350 349 350 350 349 349 349 350 349
302 302 302 302 302 303 303 303 303 303 303 303 303 303 303 303 304 303 303 302 303 305 308 310 311 311 311 311 311 311 309 310 314 317 318 317 317 314 310 309 309 309 309 308 307 307 308 310 310 310 314 316 316 316 317 317 317 316 315 315 315 314 313 314 315 315 316 316 316 315 316 318 317 323 339 344 348 350 349 347 346 348 349 349 349 349 349 349
302 302 302 302 302 302 302 302 303 303 303 303 303 303 303 303 304 304 304 303 302 303 305 307 309 310 311 311 311 311 309 313 320 320 319 319 316 313 311 310 309 309 309 308 307 307 310 313 312 312 315 315 316 317 317 318 317 316 314 314 313 314 314 314 315 315 316 316 316 315 316 319 316 324 338 342 350 351 346 343 340 342 346 347 349 349 349 349
302 302 302 302 302 302 302 302 302 302 303 303 303 303 303 303 303 305 305 304 303 303 303 304 306 308 310 310 310 310 309 312 317 317 317 318 316 313 312 310 309 309 309 308 307 308 312 314 313 313 314 315 316 317 318 318 317 316 314 313 313 313 313 314 315 315 317 316 315 316 317 318 316 320 331 335 340 342 339 340 339 341 345 346 348 349 349 349
302 301 302 302 302 302 302 302 302 302 302 302 303 303 303 303 303 304 305 305 305 304 303 302 303 305 307 309 309 309 310 311 313 315 315 316 315 314 313 311 310 309 309 308 306 308 313 314 312 313 313 315 316 316 317 317 316 315 314 313 314 314 313 314 315 315 316 316 315 317 317 317 317 317 327 332 334 338 341 342 342 346 348 348 349 349 348 348
301 301 301 301 301 301 301 302 302 302 302 302 302 302 303 303 303 304 304 305 306 305 304 303 303 303 304 307 307 309 309 310 314 318 317 316 316 315 316 314 311 309 308 308 307 309 313 313 312 313 313 315 316 316 316 316 315 314 314 313 314 314 314 314 315 315 316 316 316 317 317 318 318 318 330 336 334 338 342 344 346 347 348 348 348 348 348 348
301 301 301 301 301 301 301 302 301 302 302 302 302 302 303 303 303 303 304 305 306 306 304 303 303 302 303 304 306 308 308 311 318 319 319 319 319 318 319 317 313 311 309 307 307 309 312 313 313 315 314 315 315 315 315 315 315 314 314 313 313 313 314 314 314 315 316 316 316 317 317 317 317 318 328 336 337 340 344 346 347 347 348 348 347 347 348 348
301 301 301 301 301 301 301 301 301 301 302 302 302 302 302 303 303 303 303 304 306 307 305 304 304 303 303 303 306 309 309 314 320 319 319 318 318 318 318 316 315 313 310 308 308 310 313 314 315 316 315 315 314 314 313 314 315 314 313 313 313 312 313 314 314 315 316 316 316 317 317 317 317 315 321 331 338 341 346 347 347 347 347 347 346 347 347 347
300 300 300 300 301 301 301 301 301 301 301 302 302 302 302 303 303 303 303 303 305 306 306 306 306 305 304 304 306 310 308 313 319 318 318 316 316 318 316 315 314 314 311 307 309 312 314 315 316 316 315 314 313 313 312 313 314 313 313 312 312 313 313 314 314 314 315 315 316 317 317 316 316 316 317 329 339 341 345 347 348 347 347 346 346 347 347 347
300 300 300 300 300 300 300 301 301 301 301 301 301 302 302 302 303 303 303 303 303 305 306 307 307 307 306 304 305 308 307 310 314 316 315 313 315 317 316 315 313 314 313 308 310 314 316 315 315 316 316 314 312 313 313 313 313 313 313 313 313 314 313 314 314 314 315 315 317 316 317 317 317 317 316 327 338 340 343 346 347 347 347 346 345 346 347 347
299 300 300 300 300 300 300 300 300 301 301 301 301 301 302 302 302 303 303 303 303 303 304 306 307 307 306 307 308 307 308 308 309 311 311 310 314 316 316 315 314 315 314 311 310 313 315 315 315 316 316 314 313 313 313 313 313 314 314 313 313 314 314 315 314 315 316 315 318 316 316 320 319 316 315 325 335 338 341 345 346 347 348 345 344 345 346 346
299 299 299 299 300 300 300 300 300 300 301 301 301 301 302 302 302 303 302 302 302 303 303 304 305 305 306 308 307 307 310 310 309 309 310 309 312 316 316 315 315 315 315 313 311 312 314 315 315 315 315 314 313 313 314 313 313 314 314 315 314 313 315 316 314 315 316 315 317 316 316 319 320 317 315 323 333 336 337 341 344 345 347 345 344 345 345 346
299 299 299 299 299 299 300 300 300 300 300 301 301 301 302 302 302 302 302 302 302 302 302 303 304 306 309 310 307 311 313 311 310 311 312 311 313 316 317 316 315 315 315 315 314 315 314 315 315 315 315 314 313 313 314 313 314 314 314 318 317 313 315 316 314 315 316 316 316 315 316 318 318 318 316 321 331 334 333 337 342 344 346 345 345 346 345 347
299 299 299 299 299 299 299 299 300 300 300 300 301 301 301 302 302 302 302 302 302 303 303 305 309 311 313 314 311 314 316 312 310 312 313 314 314 316 317 317 316 316 316 316 316 316 315 315 314 315 314 314 314 313 313 313 317 318 315 319 319 315 315 315 314 315 315 315 315 315 317 319 319 317 315 318 327 334 333 334 340 342 344 344 344 346 346 346
299 299 299 299 299 299 299 299 299 299 300 300 300 301 301 301 302 302 302 302 302 305 304 307 314 314 314 314 311 313 315 314 312 311 314 314 314 316 317 317 316 316 316 316 316 316 316 315 314 317 316 314 315 314 313 313 315 317 316 317 318 315 314 314 314 314 314 315 315 315 316 319 321 319 315 315 324 332 332 333 338 340 341 343 343 345 345 344
299 299 299 299 299 299 299 299 299 299 300 300 300 301 301 302 302 301 303 305 307 310 309 309 312 314 314 312 312 313 315 316 315 314 314 314 314 315 317 317 317 317 316 316 316 315 315 314 313 318 318 315 314 314 314 313 314 316 316 317 318 315 314 313 314 314 314 315 315 315 314 317 320 318 315 314 320 329 332 333 335 337 340 341 342 344 344 340
299 299 299 299 299 299 299 299 299 299 299 300 300 301 302 303 304 308 313 313 313 315 316 314 312 313 314 313 314 315 315 316 316 316 315 314 314 314 314 316 317 317 315 315 316 314 314 314 313 315 315 314 314 313 312 312 313 315 315 316 316 314 314 313 313 314 314 314 314 315 314 314 316 316 316 314 316 324 329 330 333 335 339 340 342 344 341 337
299 299 299 299 299 299 299 299 299 299 299 300 303 303 303 303 305 313 318 316 314 314 314 313 313 313 313 313 314 315 315 315 315 316 317 315 314 313 313 313 315 316 316 316 316 314 313 315 314 313 313 314 316 316 314 313 313 314 314 314 314 313 314 314 314 315 314 314 314 315 314 314 315 316 317 314 313 318 320 325 332 334 337 339 342 341 337 337
298 298 299 299 299 299 299 299 299 299 299 302 305 306 306 304 304 309 311 310 309 309 308 309 311 311 311 311 312 313 314 315 314 316 317 316 315 313 313 313 314 316 315 314 315 314 313 315 314 313 314 316 319 320 319 317 315 315 314 313 313 313 314 314 314 316 316 316 316 316 313 314 315 315 316 314 315 316 318 324 332 333 336 339 340 337 336 339
298 298 298 298 299 299 298 298 299 299 300 304 307 307 307 307 306 307 307 307 308 309 309 309 309 310 310 309 310 311 314 315 315 315 316 316 315 313 313 313 314 316 315 314 314 314 313 314 313 313 315 317 318 320 320 319 318 316 314 314 315 314 314 316 318 318 317 317 319 317 313 314 315 316 317 315 315 315 317 326 332 334 336 337 336 337 338 339
297 298 298 298 299 298 298 298 298 299 301 306 309 307 307 309 310 309 309 309 310 310 310 310 310 310 309 309 309 311 315 316 315 315 315 315 314 312 314 314 315 315 315 315 315 314 314 313 312 312 314 316 317 318 319 319 319 319 317 316 315 315 314 317 319 319 318 318 319 316 314 315 315 315 317 314 315 319 322 327 332 334 335 335 336 338 339 338
297 297 298 298 298 298 299 298 298 300 303 308 309 306 307 310 310 311 311 310 311 311 309 310 310 310 310 309 309 311 314 314 314 315 315 314 313 313 314 315 315 314 313 314 314 314 313 313 312 313 314 316 316 317 318 319 318 320 320 317 315 316 317 318 319 320 320 321 323 319 313 316 321 318 317 318 320 326 330 331 334 334 334 335 336 338 339 339
297 297 298 298 298 299 298 299 300 302 305 310 308 304 306 309 309 310 311 313 316 314 311 311 311 310 309 310 310 311 313 313 314 315 315 314 313 313 314 315 315 314 313 313 313 313 312 312 313 314 315 314 314 316 317 319 319 319 322 322 318 319 320 320 320 319 318 320 326 322 311 317 330 326 318 321 325 330 332 332 333 333 334 335 336 338 339 340
297 297 297 297 298 298 299 300 301 301 303 305 304 302 305 309 309 309 312 318 321 317 314 313 312 312 311 311 311 312 314 314 313 314 315 314 314 314 315 314 314 314 313 312 312 312 312 312 312 314 316 314 314 314 314 318 319 318 325 328 322 319 320 321 319 316 317 318 323 324 318 322 332 331 323 322 328 332 332 331 332 332 333 334 336 338 339 339
297 297 297 297 297 298 300 300 300 301 303 304 303 301 304 309 308 308 314 317 319 318 316 314 312 314 313 312 312 312 315 316 314 314 315 314 314 315 315 315 314 313 312 311 311 312 313 313 313 315 316 314 314 313 314 318 318 321 331 327 320 319 319 321 318 315 319 321 323 329 328 324 325 330 326 322 329 334 331 331 331 330 331 332 334 336 337 335
297 297 297 297 297 298 299 299 301 306 308 306 304 301 305 309 308 310 317 316 314 316 316 313 313 314 312 312 312 313 316 316 315 316 315 315 315 315 315 314 313 313 313 311 312 314 316 315 314 315 315 315 314 313 316 318 318 325 333 324 318 319 318 320 317 316 320 320 323 333 329 320 328 339 330 324 331 334 332 332 330 329 330 330 332 333 333 333
297 297 297 297 297 298 299 299 301 307 310 307 304 304 306 307 307 314 318 318 316 314 314 313 315 315 312 312 312 313 315 315 316 316 315 315 315 315 315 314 313 313 312 312 314 316 316 314 313 313 314 315 315 314 316 318 320 324 325 320 318 317 317 318 315 315 318 317 323 336 328 317 330 344 334 324 329 333 332 331 329 329 330 329 331 331 331 331
297 297 297 297 298 298 299 299 299 305 310 308 305 305 305 307 314 319 317 319 317 313 314 315 316 316 314 312 312 313 314 315 316 315 314 315 315 315 316 314 313 314 314 314 314 314 313 313 314 313 313 316 317 316 315 317 321 320 319 317 314 316 316 318 318 317 316 319 328 337 330 318 323 334 333 323 324 330 332 331 330 330 329 329 330 330 331 330
297 297 298 298 298 299 299 300 302 307 310 308 305 304 304 309 318 320 317 316 317 314 314 314 315 317 315 312 313 314 313 315 315 314 315 316 315 315 316 316 315 315 316 315 315 316 314 312 314 315 314 315 317 318 315 316 317 316 317 315 315 322 322 321 322 316 315 324 333 333 325 319 321 330 335 329 325 329 331 331 331 331 329 329 329 329 330 330
298 299 300 299 298 299 299 300 303 307 308 307 305 304 310 311 313 317 318 316 319 318 312 311 313 315 316 315 316 315 314 316 315 315 316 316 317 316 316 319 319 316 319 320 318 319 318 315 315 314 316 316 316 319 317 316 316 313 317 315 314 320 322 325 327 319 320 327 329 328 321 317 323 329 331 329 327 329 330 330 331 330 329 329 329 330 330 330
299 301 300 299 299 301 303 303 302 304 307 308 304 307 316 315 312 316 315 312 317 315 309 311 311 310 314 316 317 316 316 317 316 315 315 316 317 316 314 319 319 316 321 324 319 316 317 317 315 314 316 316 316 318 316 317 318 313 315 316 316 320 320 323 326 323 323 323 323 326 318 318 329 330 327 329 328 328 330 330 330 330 330 330 330 330 330 330
301 301 299 301 305 305 306 304 300 302 306 306 307 312 315 312 313 317 313 309 312 310 309 310 308 308 311 315 318 318 316 318 316 314 315 316 317 318 316 315 316 316 318 319 317 317 316 318 319 317 315 316 316 317 316 321 321 316 317 316 319 328 326 322 325 324 321 321 326 326 315 320 333 331 326 328 328 328 329 329 330 330 330 330 330 330 330 330
302 302 300 303 310 309 305 303 300 302 303 303 310 315 313 312 315 316 313 311 310 309 309 308 307 309 310 313 319 318 317 322 321 314 315 317 317 319 318 315 315 316 316 317 319 318 314 317 323 317 314 316 316 316 315 317 319 318 319 315 315 326 331 326 326 329 327 323 324 324 321 324 330 328 327 328 328 328 329 328 330 330 330 330 330 330 331 330
303 302 301 304 312 313 306 302 301 303 304 306 311 313 313 314 314 312 311 310 308 307 307 306 307 309 310 313 318 318 319 329 329 319 316 319 317 318 318 316 316 314 315 321 323 318 313 319 324 315 314 317 314 316 315 313 320 323 317 317 317 320 327 327 323 324 327 325 323 327 328 325 327 327 327 328 329 329 329 329 330 331 331 331 330 331 331 331
306 307 306 307 313 314 309 304 303 305 308 312 316 315 313 313 310 308 308 307 307 307 306 306 308 309 310 312 313 317 320 325 326 320 320 323 323 321 320 318 317 314 314 317 320 319 315 317 321 315 313 317 313 314 316 313 321 323 316 318 320 317 322 330 327 323 324 324 326 330 328 326 330 330 326 329 332 331 331 330 329 331 332 331 331 331 332 332
310 313 311 311 313 314 312 310 307 307 310 316 318 317 314 310 307 307 306 306 307 306 304 306 308 309 310 308 310 317 323 321 322 324 325 324 324 324 323 321 320 317 315 314 316 322 319 315 322 321 314 318 316 312 315 317 316 316 317 320 320 322 325 326 326 325 323 323 323 326 327 327 329 328 326 329 329 330 332 331 330 331 331 331 330 330 331 332
310 314 313 312 313 313 313 312 311 310 313 316 316 313 312 310 308 307 306 306 306 306 305 306 308 309 309 308 310 315 319 321 322 324 325 322 322 324 322 322 321 318 316 316 315 321 321 316 323 326 317 319 324 318 316 321 321 316 319 321 323 331 333 324 322 327 329 328 323 324 330 330 327 324 325 327 325 326 330 331 331 331 330 331 330 330 330 330
307 313 315 313 313 313 313 313 313 313 314 316 315 312 310 309 309 308 308 308 306 306 307 306 307 308 307 308 311 311 315 322 324 323 323 324 322 322 321 320 322 320 317 318 318 320 322 318 321 327 321 322 331 324 315 319 322 319 321 324 323 326 326 321 322 325 329 332 328 326 328 327 325 323 324 327 325 324 327 329 329 329 328 328 328 328 328 328
308 313 314 314 313 313 313 313 314 314 315 315 314 312 310 310 310 310 310 310 308 308 307 306 305 307 306 308 310 311 313 321 325 323 324 325 322 323 324 320 321 324 321 322 323 321 323 324 325 328 323 320 325 322 315 316 319 319 322 324 322 323 323 322 323 324 328 332 330 330 330 325 323 324 324 326 326 325 326 327 327 326 325 325 325 326 327 327
313 314 314 314 313 312 312 314 314 313 314 314 313 311 310 311 310 310 310 310 310 310 309 307 307 308 309 309 311 311 311 315 321 323 324 326 324 324 324 318 317 321 322 323 323 320 325 328 326 325 322 318 317 316 316 316 316 319 320 319 323 328 328 327 329 328 327 326 326 331 334 327 323 325 325 325 325 324 325 326 326 326 325 324 325 325 326 326
311 312 313 313 312 311 313 315 315 314 313 312 311 310 310 310 310 310 310 310 310 310 309 309 310 311 312 311 311 311 311 313 317 321 322 323 322 321 320 317 316 318 322 327 323 321 327 326 323 327 330 325 318 316 317 317 317 321 322 320 323 324 323 326 332 330 325 325 327 330 332 326 324 325 324 323 324 324 324 325 325 325 324 323 323 324 325 325
309 312 313 312 311 311 313 313 314 315 314 311 310 311 310 309 310 310 310 310 310 310 309 309 310 311 310 311 311 311 311 313 316 321 322 321 320 318 317 317 317 318 322 327 323 320 325 325 325 331 332 325 319 318 322 321 319 321 321 321 322 323 326 326 326 329 327 324 326 328 328 325 324 325 323 323 324 323 323 324 323 323 323 322 322 323 323 324
311 312 312 311 309 310 312 312 312 313 313 312 312 312 310 310 310 310 310 310 310 309 309 310 310 310 310 311 311 311 312 313 316 318 320 320 319 317 316 316 317 319 321 322 320 322 329 329 328 331 330 326 322 323 328 325 321 321 322 322 321 325 329 326 325 332 331 324 326 329 328 326 324 324 323 323 323 323 323 323 322 322 321 321 321 321 322 323
311 311 311 311 309 308 310 310 309 311 312 312 313 312 311 311 311 310 310 311 310 310 309 310 311 311 312 314 314 313 314 314 316 317 317 319 318 315 315 317 316 319 322 318 315 322 329 328 328 330 331 330 328 326 325 324 322 322 322 322 323 324 325 328 333 336 331 327 329 327 325 327 325 323 324 323 323 323 322 322 322 321 319 317 318 320 321 323
311 311 310 311 310 308 309 309 309 310 311 311 312 311 311 311 310 310 311 310 310 311 310 310 311 311 313 316 317 315 315 316 318 319 317 318 319 316 314 316 317 318 320 317 315 324 330 326 324 325 324 323 324 323 320 319 320 321 321 322 324 326 327 329 331 327 324 327 330 325 325 328 326 324 324 323 323 322 320 321 322 318 315 313 315 318 320 321
310 310 309 310 310 310 310 310 309 311 312 312 313 311 310 311 310 310 311 310 309 310 312 313 313 310 310 313 315 314 314 318 319 320 319 318 321 321 318 316 316 317 319 319 318 325 330 324 319 321 321 319 319 319 318 317 317 318 320 321 323 327 329 327 324 321 321 326 329 326 324 325 323 323 323 322 321 320 318 317 316 313 311 311 312 314 315 316
309 310 308 309 310 309 309 308 308 311 312 312 312 311 310 311 310 309 311 312 311 309 311 313 313 311 308 310 314 314 313 316 317 318 320 319 320 324 323 319 317 315 317 321 321 321 325 322 318 321 323 318 317 318 317 318 317 316 317 317 319 322 324 324 323 320 319 322 323 321 319 316 315 317 319 318 316 315 313 312 311 309 308 308 309 309 310 311
307 309 308 309 310 308 308 308 308 311 312 311 311 311 310 310 310 309 310 311 311 310 309 310 311 311 308 308 312 312 309 310 312 314 317 316 318 324 324 320 321 321 318 320 321 320 321 319 316 321 322 318 318 319 317 316 317 316 316 316 317 320 321 322 322 321 320 319 316 315 316 313 310 311 313 313 310 309 309 308 308 307 307 306 306 307 307 308
307 309 308 310 312 309 307 307 308 311 313 311 310 311 311 310 310 311 312 310 310 310 308 308 310 312 310 309 310 310 307 307 308 309 311 311 313 319 319 317 323 328 324 321 322 323 323 320 318 320 322 319 319 318 316 316 318 317 317 316 317 319 320 320 320 320 320 318 316 316 317 313 310 310 309 308 307 307 306 306 305 305 305 305 305 305 306 306
308 309 309 310 312 309 306 308 309 311 310 308 308 309 309 309 309 311 313 311 308 308 307 307 309 310 311 310 310 308 306 305 306 307 308 309 309 311 312 313 319 323 324 323 322 322 323 323 320 321 321 319 317 318 318 319 320 319 316 315 315 317 318 319 319 318 317 317 317 318 314 310 309 309 307 306 306 305 304 304 304 304 304 304 304 304 305 305
Wind_Speed
8 9 9 9 9 10 10 10 9 8 8 8 9 9 9 9 9 9 9 8 9 9 9 10 11 13 14 15 16 17 18 18 18 19 20 11 5 8 10 11 12 11 11 11 11 11 10 11 12 12 13 12 10 11 11 11 12 9 3 5 4 4 7 3 4 4 3 8 11 18 15 4 6 11 15 14 18 20 17 14 14 12 17 23 21 32 36 32
8 8 8 9 9 9 9 9 9 9 9 9 9 9 9 9 10 10 10 10 9 9 9 10 11 13 15 15 16 19 19 20 22 21 17 9 8 12 9 8 11 13 12 10 10 12 11 12 14 13 13 11 8 9 9 7 9 8 3 4 5 7 10 3 3 8 7 9 11 18 20 3 4 4 11 7 7 16 17 11 16 22 20 22 28 35 33 31
8 8 8 8 8 9 9 9 9 10 10 10 9 9 9 9 10 10 10 10 10 10 10 11 11 13 14 15 16 19 20 23 21 12 5 5 6 9 12 11 9 12 11 8 9 11 11 10 12 13 12 9 10 11 9 6 6 9 6 3 6 8 9 9 11 15 12 12 11 16 21 9 6 2 10 8 6 10 12 10 13 20 24 29 34 35 32 31
8 8 9 8 9 9 9 9 9 9 10 10 10 9 9 9 10 10 10 10 10 10 11 11 12 13 14 15 16 17 21 22 12 1 3 5 7 4 9 13 10 11 10 8 9 10 10 8 8 12 11 6 11 11 9 11 8 5 7 5 7 8 7 14 18 18 17 17 16 15 14 9 11 2 16 14 8 0 7 19 19 24 32 34 35 34 33 31
9 9 9 9 9 9 9 9 9 9 9 9 10 9 10 9 9 10 10 10 10 10 11 12 12 13 15 15 15 17 18 11 1 3 1 3 6 5 4 10 11 10 10 9 10 12 13 12 9 11 10 5 8 7 8 17 14 5 6 8 11 11 8 16 22 20 21 23 19 13 8 6 11 3 22 17 8 6 13 22 22 27 33 35 37 35 33 32
10 10 10 10 10 10 10 10 10 9 9 9 9 10 10 10 10 10 10 10 10 10 11 12 12 13 14 14 15 16 12 4 2 1 3 2 5 5 1 5 9 10 10 10 12 15 16 14 10 9 7 4 6 6 9 17 15 6 8 11 17 19 11 16 24 22 22 21 14 12 12 5 6 5 12 13 10 15 20 22 23 26 30 34 37 35 34 33
11 11 11 11 11 11 11 11 11 10 10 10 9 10 10 10 10 10 10 10 10 11 11 12 12 13 13 14 15 14 12 11 6 4 4 2 2 3 4 1 5 9 11 12 15 18 19 15 11 9 6 4 6 7 13 18 13 7 7 10 19 24 17 20 27 25 26 22 18 20 18 6 0 4 1 5 11 19 21 22 26 28 30 33 34 34 33 31
11 11 11 11 11 11 12 11 12 11 11 10 10 10 10 10 10 10 10 10 11 11 12 12 11 13 13 13 13 12 17 14 5 2 3 2 1 2 5 5 3 6 10 13 17 21 19 15 13 11 5 6 8 8 14 15 9 7 9 12 17 22 21 25 27 25 27 22 20 20 14 12 9 3 5 9 16 20 22 25 28 30 31 32 32 32 31 29
11 12 11 11 11 11 12 12 12 12 12 11 11 11 10 10 10 11 10 10 11 11 12 11 11 13 12 13 11 10 14 9 1 2 4 4 2 5 7 7 5 6 8 13 18 20 18 15 16 13 6 10 12 11 12 7 4 7 11 14 14 18 22 24 24 22 24 18 14 12 8 14 13 3 7 16 22 22 25 28 29 32 33 32 31 30 30 30
12 12 12 12 12 12 12 12 12 12 12 12 12 12 11 11 11 11 11 10 10 11 12 11 11 12 13 13 6 4 8 3 2 4 5 4 4 6 9 9 8 8 8 13 19 21 19 15 15 12 8 12 12 12 12 6 8 12 14 16 14 18 20 20 19 23 24 14 11 10 6 11 8 2 3 14 23 25 28 28 30 32 33 33 30 30 31 29
12 12 12 13 12 13 13 12 13 12 12 13 13 13 13 12 12 11 11 11 11 11 11 11 11 12 13 12 7 6 6 4 3 3 4 4 6 8 8 8 9 9 8 12 20 22 19 15 12 8 6 7 8 11 12 9 12 16 15 14 14 17 18 15 12 17 17 8 12 15 8 8 3 2 6 16 24 27 30 29 31 33 33 32 30 30 31 28
12 12 12 12 13 13 13 13 13 13 13 13 13 13 13 13 13 12 12 11 12 12 12 12 11 13 14 15 17 10 5 7 6 6 5 6 8 9 7 7 9 9 8 11 20 21 16 13 10 10 9 7 5 5 9 12 12 14 11 7 10 11 10 10 8 13 12 4 12 15 7 6 2 5 10 21 29 28 30 31 30 32 33 32 30 31 31 29
12 12 12 12 13 13 14 14 14 14 13 13 13 14 14 14 14 13 12 12 13 13 13 13 13 16 14 17 21 12 9 14 13 14 15 12 11 9 8 9 9 10 9 9 17 19 16 13 12 16 19 14 7 4 10 16 13 11 9 3 6 7 6 7 5 9 9 4 10 11 4 7 5 10 14 21 32 28 26 28 27 28 30 31 31 32 32 30
12 12 12 12 12 13 14 14 14 14 14 14 13 14 15 15 15 15 13 13 14 13 14 13 14 15 13 19 22 15 12 15 16 20 19 15 12 10 9 10 11 11 9 8 12 15 13 12 14 19 21 16 11 8 9 11 7 5 6 3 3 3 6 7 4 4 4 4 11 11 4 7 7 12 17 20 34 31 25 26 26 27 28 30 32 32 31 29
13 12 12 12 12 13 14 14 15 15 15 15 14 14 15 16 16 15 14 15 15 15 14 12 13 12 14 23 23 13 11 14 20 23 17 13 14 13 10 8 11 11 10 9 9 10 10 12 15 15 13 12 9 5 4 4 4 1 2 5 3 3 5 8 6 5 5 6 7 9 4 6 6 13 20 20 32 33 26 26 26 26 28 29 31 32 30 27
14 13 13 12 12 13 13 14 15 15 15 15 15 14 15 16 17 16 16 16 16 15 11 9 9 7 9 15 13 6 11 15 18 20 17 13 12 14 11 7 10 11 11 12 11 13 15 15 15 12 8 7 3 2 2 5 4 2 2 4 5 4 4 6 7 6 9 6 3 6 4 3 5 12 22 21 29 33 25 24 26 27 28 29 30 31 31 29
15 15 14 13 13 13 13 14 15 16 15 16 15 15 15 16 17 17 17 17 16 12 8 7 5 6 11 13 10 8 8 11 12 15 19 16 12 13 13 11 12 11 12 14 15 17 17 14 10 8 5 3 2 4 1 4 5 4 1 3 5 4 3 4 6 6 5 5 5 5 4 5 7 10 21 22 27 32 22 23 28 27 27 28 28 29 29 30
16 16 15 15 14 14 14 15 16 16 16 16 15 16 15 15 16 16 16 16 10 4 5 8 4 2 10 12 10 8 4 5 9 11 17 17 14 15 16 16 14 13 13 13 14 14 12 8 3 2 3 3 2 4 4 5 4 3 2 2 4 4 4 6 6 5 2 3 6 7 5 8 11 9 17 21 23 30 25 26 29 26 26 26 25 27 28 30
17 17 16 16 15 15 15 16 17 16 17 16 14 14 14 13 12 11 10 7 7 4 2 8 9 3 8 12 13 12 11 12 14 14 16 18 17 17 18 18 16 16 11 5 7 9 7 3 1 3 5 5 4 5 7 4 1 3 4 3 4 5 5 7 9 6 2 3 6 9 8 10 14 11 12 18 18 25 28 25 24 24 26 24 25 28 29 34
17 17 17 17 16 16 16 17 17 16 17 15 12 11 9 7 5 4 4 8 12 11 13 14 17 19 21 24 25 20 18 18 16 14 17 18 18 18 19 18 15 13 8 4 4 7 7 4 4 7 6 5 6 7 8 5 4 6 6 5 6 6 6 8 9 7 3 4 6 10 12 12 15 13 12 17 12 15 19 17 20 24 24 26 29 30 32 37
17 17 17 17 17 16 16 16 16 16 16 14 12 10 7 6 4 4 7 13 20 20 21 21 22 27 30 29 28 22 18 15 13 12 17 19 20 16 15 15 8 5 7 7 5 4 6 7 8 8 7 7 8 8 8 6 7 7 6 7 8 6 8 11 9 7 3 4 7 10 12 14 15 14 14 14 8 8 14 19 21 23 24 28 33 34 35 37
17 16 16 16 16 15 15 15 15 14 13 13 11 9 10 13 11 11 10 12 23 25 22 24 24 30 34 32 30 25 17 14 13 13 14 21 22 15 11 11 5 3 5 6 4 1 3 7 10 10 8 8 8 7 7 7 7 6 6 5 6 5 7 10 7 4 3 3 7 11 10 13 16 15 14 12 8 8 16 29 33 31 29 30 35 37 36 36
16 16 15 15 15 15 14 13 13 12 11 12 10 9 14 18 15 13 11 8 19 25 22 24 26 30 35 34 31 25 18 15 15 16 15 19 24 19 13 8 5 5 4 5 5 4 4 8 10 10 8 7 8 8 6 6 5 5 5 4 6 6 4 6 5 4 4 4 7 9 7 9 11 10 10 7 2 4 11 28 34 35 36 36 40 41 39 37
16 16 15 15 15 14 12 12 11 9 10 11 7 9 15 17 16 13 9 5 11 20 24 25 25 29 35 30 23 20 22 19 16 18 18 21 25 19 12 8 6 6 5 6 8 6 9 12 7 6 7 8 8 9 6 5 5 5 7 7 7 6 5 7 6 6 7 7 4 2 3 4 6 6 8 4 9 14 16 23 24 27 36 39 39 38 37 36
17 16 16 16 15 13 12 10 7 6 10 9 6 10 12 13 14 12 7 2 5 12 16 14 16 24 27 21 16 18 20 20 20 19 19 24 26 15 9 9 8 5 6 8 7 5 12 16 7 6 8 9 8 9 7 6 5 6 7 10 9 7 6 7 6 6 6 7 3 5 4 4 5 2 7 3 9 10 12 19 22 28 36 37 37 36 35 33
17 17 17 16 16 15 11 6 5 8 9 8 7 10 9 7 11 9 3 2 3 6 4 5 10 11 12 14 19 17 8 12 22 23 20 26 29 18 8 6 5 5 7 6 4 3 8 12 7 8 9 9 9 9 8 7 5 6 6 8 9 6 3 7 7 4 1 5 4 4 5 3 4 2 3 3 10 8 8 12 17 27 32 33 37 38 36 33
18 18 17 16 15 16 12 7 8 9 7 6 9 9 9 5 7 6 1 3 4 4 2 5 7 3 5 14 22 16 2 6 16 21 24 27 27 21 11 5 4 6 6 4 2 3 7 10 7 8 8 7 7 8 9 9 6 6 6 7 6 3 4 7 6 4 3 5 6 3 4 3 3 4 1 11 13 8 9 11 13 20 26 30 35 38 38 37
18 18 18 16 13 14 14 10 8 6 4 7 8 8 7 5 3 2 2 2 4 3 1 4 6 2 4 14 26 19 5 7 9 15 26 27 23 17 9 6 7 7 7 6 5 5 5 9 9 9 8 5 6 10 11 10 7 7 7 7 5 4 6 6 5 5 3 2 6 6 3 3 2 5 3 13 13 7 7 10 12 17 24 29 33 36 38 38
18 17 18 17 12 12 13 11 8 4 5 7 6 6 5 4 2 2 4 0 3 2 1 3 4 3 6 14 22 20 9 6 5 11 23 27 25 18 9 10 10 7 7 7 5 7 5 9 12 8 7 6 9 14 12 10 7 7 6 4 3 3 5 4 4 4 1 1 5 6 1 2 3 6 4 6 9 7 6 7 9 15 23 28 31 35 36 36
17 16 17 17 13 10 11 11 7 4 6 6 4 4 3 2 2 4 1 3 3 4 2 1 1 2 9 10 10 13 10 6 4 8 16 22 27 20 12 15 11 3 4 4 5 8 9 14 13 6 7 9 10 11 10 13 10 4 3 3 3 2 1 2 3 2 2 2 7 7 4 4 1 4 2 1 5 10 10 7 7 11 17 22 27 32 33 34
16 14 14 16 14 11 11 9 4 4 6 4 5 1 2 2 4 3 2 3 3 5 2 4 5 4 6 8 6 9 8 5 5 9 7 10 14 10 5 7 7 1 2 3 4 7 8 11 9 7 13 10 7 6 5 7 6 4 3 1 1 4 2 2 3 3 4 4 7 7 5 6 1 4 4 4 6 16 17 16 16 13 15 21 24 27 30 32
14 12 11 13 13 12 10 7 3 6 5 3 5 2 3 3 3 2 3 5 3 2 3 5 7 7 3 4 4 7 8 5 4 6 5 4 5 6 4 5 5 2 3 3 3 6 5 6 6 7 11 8 6 4 3 3 1 4 2 3 2 3 2 2 3 1 2 4 6 5 4 4 2 4 5 7 5 16 15 15 18 16 17 19 21 24 27 29
11 10 10 10 11 10 7 6 6 8 7 5 4 3 5 4 1 5 4 3 1 2 6 8 11 12 7 5 2 4 6 4 3 5 6 5 5 7 6 6 6 5 3 3 2 4 5 6 5 4 5 4 7 4 2 3 0 4 3 4 4 2 1 1 3 1 1 4 6 4 2 1 3 2 6 8 3 13 16 19 20 19 20 22 23 25 25 26
10 9 8 5 4 5 4 4 6 8 10 8 1 4 5 2 4 4 4 4 4 7 9 10 14 15 8 5 5 5 3 3 2 4 5 5 5 5 5 6 5 5 3 2 2 3 3 5 4 3 4 3 6 7 7 4 3 3 3 5 5 4 4 3 3 2 2 3 4 4 1 2 1 1 6 6 9 15 20 25 28 27 26 27 28 28 28 27
9 8 6 1 2 4 4 1 4 7 9 7 4 5 3 3 3 2 2 4 3 7 11 12 10 9 8 4 4 5 3 1 2 2 3 5 6 6 5 6 7 5 4 2 3 3 4 6 7 6 6 6 6 6 7 6 2 4 2 5 3 5 5 2 2 5 3 0 3 3 0 0 3 2 6 8 14 13 14 19 24 26 26 27 28 28 29 28
7 6 4 1 3 3 5 3 4 7 8 8 5 1 4 4 3 2 2 4 4 8 12 12 7 3 5 5 2 2 1 2 1 3 1 3 4 5 5 4 5 6 5 4 3 1 3 5 7 4 3 7 10 7 6 7 3 2 1 3 4 4 7 4 1 1 4 2 3 1 2 1 3 4 6 8 12 8 8 11 16 20 24 27 28 29 30 29
6 4 4 3 5 3 6 7 7 8 8 8 4 2 4 3 3 3 5 8 9 9 7 6 5 3 4 4 4 5 2 2 1 1 1 2 1 2 2 0 1 4 4 4 4 3 3 5 8 4 5 8 10 7 3 6 7 4 1 4 2 2 4 4 2 2 4 1 4 2 3 1 3 3 4 5 11 7 6 7 11 16 20 23 25 28 30 30
6 6 7 6 5 6 6 7 8 9 7 6 1 3 3 2 3 5 9 10 9 7 4 3 3 2 2 4 6 6 3 3 2 2 1 2 2 2 1 1 2 3 2 3 4 3 3 4 8 5 5 6 2 2 2 3 2 4 3 2 3 2 0 1 2 2 2 3 3 4 2 0 3 2 4 2 5 5 7 8 9 11 16 21 22 24 28 27
6 5 8 7 6 8 7 5 6 6 5 3 1 2 2 4 6 11 15 12 7 5 3 3 4 2 3 3 3 4 1 3 2 2 0 1 3 3 0 2 1 3 5 2 4 2 0 2 5 6 2 3 5 3 1 5 5 2 3 3 2 3 3 2 2 3 4 4 1 2 3 1 0 3 4 2 5 5 5 7 8 11 15 17 16 16 17 17
4 3 5 5 5 5 5 5 5 4 3 1 3 2 3 5 8 15 19 14 7 5 4 4 4 4 5 5 4 3 2 4 3 1 1 1 1 2 1 2 1 3 6 5 2 1 2 2 4 7 4 4 2 0 2 2 2 3 4 3 2 1 1 2 1 2 4 4 3 2 1 3 2 4 1 7 6 4 4 5 4 6 7 5 3 5 5 3
2 3 4 4 2 1 4 7 4 1 1 1 2 2 5 7 8 14 18 15 9 8 7 8 8 6 6 6 4 3 2 1 3 3 1 1 1 2 2 2 1 1 3 5 3 0 1 1 3 3 4 4 1 2 7 9 6 5 3 1 1 2 3 3 1 2 2 4 4 5 3 3 3 3 1 6 6 5 8 7 5 6 8 6 2 4 4 3
2 3 3 4 1 1 4 5 1 1 2 2 4 4 8 9 8 10 14 14 10 8 8 8 8 6 4 4 3 2 2 1 2 3 3 3 4 3 4 5 6 6 4 1 3 2 2 3 2 1 1 2 2 4 9 11 10 8 4 2 1 2 3 4 3 3 2 3 1 3 3 2 3 3 1 3 4 6 10 10 9 10 12 11 8 4 6 8
3 2 5 4 2 1 3 1 3 2 1 4 6 8 10 7 5 7 9 9 7 5 5 5 4 2 1 1 2 3 4 1 1 2 1 1 4 6 7 9 9 7 5 2 3 2 1 3 2 2 3 1 0 3 6 7 7 7 4 4 3 1 1 4 5 3 3 3 1 3 2 2 3 2 1 6 8 9 11 14 14 15 17 19 18 11 5 5
3 4 6 4 3 3 1 1 1 1 3 5 4 7 9 6 5 6 6 6 6 4 4 4 4 2 2 2 1 2 3 2 1 1 1 1 4 7 8 9 8 5 2 3 3 1 1 0 2 3 2 3 2 1 4 6 5 4 2 4 4 4 3 1 1 3 2 2 3 5 3 3 3 1 4 9 10 9 10 16 19 20 21 23 23 22 17 14
4 4 5 4 4 3 2 3 2 2 3 3 3 5 7 6 6 8 8 8 8 6 4 5 4 3 3 4 2 3 4 2 1 1 2 2 2 2 2 7 8 5 4 3 3 3 2 1 3 4 3 2 3 4 2 1 2 2 2 4 6 7 6 2 2 4 1 2 2 5 3 2 1 3 7 9 8 6 8 15 22 24 24 24 25 27 26 23
4 2 1 1 4 7 5 3 2 2 2 2 2 4 4 3 7 10 8 5 6 7 4 3 5 5 6 6 4 5 7 4 2 4 2 2 3 5 8 11 11 9 7 9 7 5 3 1 3 5 4 4 4 5 4 2 3 2 3 6 6 5 6 5 3 2 2 2 4 2 6 7 3 3 7 8 8 7 5 10 19 23 25 26 28 30 30 28
3 1 1 0 2 5 6 5 6 3 1 1 0 3 4 3 5 7 6 3 7 9 4 4 8 7 5 5 4 5 7 5 5 5 3 4 1 4 13 18 17 16 8 10 10 5 4 3 3 3 2 3 4 4 2 3 5 4 4 6 6 6 8 8 3 1 3 4 2 3 8 10 6 4 7 8 9 7 3 6 16 22 25 28 31 32 31 29
3 2 3 3 1 1 3 4 4 4 2 1 0 3 5 5 5 5 5 6 7 9 6 4 8 8 6 5 3 3 6 5 6 5 3 4 2 3 9 10 12 17 12 7 8 5 5 2 4 2 3 5 2 3 6 7 7 6 6 5 6 8 9 8 3 2 2 3 4 8 9 8 6 6 6 6 9 10 8 12 19 24 26 28 30 32 31 30
5 3 3 4 0 1 1 2 3 3 3 1 2 5 5 6 7 4 4 4 5 10 8 4 6 7 8 6 3 4 5 3 4 4 2 4 4 2 3 3 6 14 11 5 5 4 3 3 5 3 4 8 8 4 9 11 9 9 8 5 5 7 9 9 7 6 6 5 5 10 11 7 4 3 4 7 12 15 18 21 24 25 26 28 30 30 30 31
6 3 3 4 2 1 1 2 2 2 3 2 2 2 3 4 7 5 5 4 4 7 7 5 7 6 5 7 5 4 2 2 1 4 2 2 4 1 2 1 0 6 7 3 4 5 3 2 4 3 4 5 9 5 9 13 11 10 10 9 7 5 6 6 7 7 8 8 9 10 10 6 5 6 7 11 14 18 21 22 22 22 25 29 30 29 29 30
7 4 3 2 2 0 0 3 2 2 2 3 1 2 2 1 1 1 5 6 4 6 6 4 5 5 5 8 6 2 3 3 5 9 7 5 5 3 1 2 5 3 3 4 3 5 3 1 2 3 4 2 5 3 6 11 11 11 11 12 10 5 4 4 3 3 4 8 10 8 6 3 2 5 10 13 13 16 18 18 19 21 24 28 28 27 27 28
7 5 3 2 1 2 1 2 3 3 2 3 2 2 2 3 2 4 1 5 5 7 9 6 5 4 4 6 6 8 12 14 16 17 16 15 13 10 10 7 5 5 2 3 3 1 1 3 2 3 3 1 4 4 2 6 8 7 7 8 7 3 3 5 5 5 4 6 7 4 3 4 2 5 10 11 12 13 15 16 17 19 23 26 26 26 25 26
Wind_Direction
359 1 2 0 2 2 3 3 357 349 340 334 332 328 321 313 304 297 295 299 302 302 310 317 319 324 321 321 323 322 320 312 307 299 287 292 301 268 259 247 229 224 229 228 223 216 213 208 199 190 191 194 214 235 233 243 244 240 218 203 233 232 240 199 176 247 279 296 301 312 325 80 92 106 110 97 102 101 95 93 113 125 143 158 161 163 167 167
351 354 354 353 354 353 355 355 357 355 347 341 335 331 329 324 315 303 294 291 293 297 302 308 315 319 314 315 322 321 320 314 310 301 289 289 271 258 257 248 226 223 223 220 220 214 212 203 193 185 187 193 207 230 234 243 228 211 180 202 222 226 244 229 215 262 267 291 306 309 308 333 86 123 132 111 96 100 89 76 102 112 127 147 155 162 167 168
345 347 346 348 348 347 348 346 349 351 350 348 339 334 333 330 325 315 304 294 288 289 292 296 301 305 306 311 319 320 320 317 314 310 315 336 302 260 246 245 231 229 222 208 211 211 212 198 189 185 184 201 217 230 241 246 226 209 206 216 238 236 258 269 259 263 274 294 299 302 301 299 350 24 144 135 128 115 116 129 117 118 133 145 155 164 167 169
339 340 340 342 341 342 342 342 341 341 345 345 343 338 333 332 330 324 317 306 294 287 286 290 291 297 303 309 316 319 322 322 313 230 74 20 2 326 236 233 233 230 213 197 199 197 197 180 183 189 183 214 232 238 248 242 242 214 201 205 244 249 267 268 265 271 281 288 284 295 307 312 337 79 145 132 117 118 165 160 156 147 148 152 159 165 168 172
334 334 335 336 336 338 336 337 334 335 336 335 338 337 334 332 328 327 324 318 309 295 287 287 289 294 299 306 312 316 325 332 321 144 42 24 12 357 220 216 221 217 202 192 192 186 184 178 186 198 193 222 235 239 247 241 245 253 244 241 250 253 259 267 270 274 273 278 280 293 312 310 331 94 148 147 140 203 188 167 164 160 160 161 163 167 170 173
327 328 330 330 331 332 330 330 329 330 330 328 330 329 332 329 324 325 322 323 317 306 295 286 287 291 295 303 305 310 317 293 221 335 309 347 11 360 40 198 206 207 197 187 190 185 185 187 197 209 202 224 226 222 243 245 239 243 269 259 259 257 253 264 267 269 269 273 275 281 288 271 337 357 159 172 178 178 174 167 166 165 165 165 164 168 170 172
323 323 324 326 327 327 324 324 323 323 324 323 323 322 324 324 324 321 317 321 317 314 305 295 290 288 292 297 300 304 293 272 278 319 282 270 357 7 26 256 208 211 201 190 193 187 190 197 202 217 209 228 231 225 243 249 236 223 260 258 260 261 257 262 262 262 263 265 273 278 278 252 256 343 166 164 165 168 169 166 164 160 160 162 163 168 171 174
320 321 322 324 323 322 319 319 318 318 318 317 317 317 316 316 318 317 316 317 315 315 307 303 298 289 291 293 299 304 286 281 309 312 236 191 258 336 350 327 273 232 212 196 195 188 194 203 209 218 209 232 234 232 243 251 247 225 245 255 260 264 262 264 261 256 256 258 271 274 262 254 252 199 129 138 155 165 166 163 160 157 158 161 164 169 173 175
321 321 322 322 321 319 316 316 315 313 312 310 311 310 311 311 312 314 314 312 313 313 308 308 301 293 293 289 298 307 287 280 296 223 180 163 262 289 297 297 287 266 228 203 197 191 197 207 214 213 212 243 241 249 250 240 255 230 237 251 255 263 264 266 263 254 255 256 258 261 258 262 257 186 144 156 160 163 160 159 160 159 161 163 165 171 174 176
324 323 323 323 320 319 316 315 312 310 309 307 307 307 308 307 307 309 309 310 308 307 309 307 303 298 292 289 288 296 282 255 175 199 174 190 251 280 278 272 272 271 240 209 197 194 201 203 207 216 244 256 243 253 254 224 253 261 261 263 259 264 269 270 268 260 259 257 236 229 247 261 241 171 198 168 163 162 158 157 162 163 163 166 168 172 176 176
327 325 324 323 322 321 317 316 313 310 309 306 306 303 303 303 304 305 304 307 302 302 304 300 305 300 291 285 252 246 261 222 207 193 182 222 261 289 284 268 269 265 247 217 200 196 201 201 205 230 269 267 252 258 258 251 266 278 280 277 275 274 279 278 273 267 264 253 227 213 214 258 224 175 215 174 166 165 161 160 164 166 167 169 169 172 176 176
328 325 325 324 322 321 318 317 314 312 311 308 306 301 300 299 299 300 299 301 296 295 294 294 300 294 295 281 257 258 268 253 251 216 220 254 258 278 290 278 272 259 254 222 202 197 202 215 228 244 261 272 280 276 275 290 302 305 301 284 284 288 286 275 266 272 271 241 222 209 213 278 223 225 222 175 169 169 165 164 167 171 172 170 168 171 176 176
329 327 326 324 322 321 319 318 315 313 311 308 306 302 299 297 295 295 294 295 292 291 290 291 293 291 293 275 266 282 291 274 263 239 244 253 242 243 256 261 261 250 254 232 207 203 213 238 250 255 266 266 260 280 295 306 316 314 309 279 287 305 292 264 245 261 264 225 206 192 219 277 248 243 233 179 170 169 164 166 172 175 174 170 166 167 173 175
329 328 326 325 323 321 319 318 316 313 311 310 307 303 300 297 294 290 290 292 290 290 290 289 291 292 283 270 280 298 283 265 248 234 233 234 226 217 224 241 247 236 236 232 214 214 230 262 269 265 270 258 247 284 309 312 317 313 310 307 286 270 278 279 259 248 270 252 202 178 209 254 254 250 238 191 173 172 168 171 177 178 175 170 166 167 169 172
328 327 326 326 324 322 321 318 316 314 312 310 307 304 300 296 292 288 289 290 288 291 291 289 287 287 282 279 291 294 249 235 232 226 217 215 211 206 211 225 235 230 227 232 231 241 259 278 275 268 275 269 259 294 333 325 318 314 283 304 296 226 278 297 277 226 228 267 205 180 226 250 254 246 238 207 177 175 174 175 179 179 175 170 167 166 161 167
325 325 325 325 324 323 321 319 316 313 312 311 308 305 300 295 291 289 290 288 288 291 285 278 273 277 288 286 299 290 229 232 234 220 209 211 209 206 213 230 233 228 236 246 255 266 268 271 274 270 278 288 261 140 6 333 321 318 195 247 274 262 297 305 290 246 214 245 224 192 217 241 264 245 236 217 179 178 179 175 181 181 176 171 167 161 156 161
322 323 324 323 323 321 320 318 315 313 312 311 309 305 297 292 290 290 290 285 285 282 258 243 251 273 273 268 281 285 244 245 249 222 209 215 221 212 211 230 237 228 239 250 255 261 263 262 263 265 268 261 164 117 90 277 265 287 289 241 262 257 271 285 300 298 230 223 241 235 226 229 259 242 232 223 183 179 181 174 181 183 175 170 163 153 148 148
320 320 321 320 319 318 318 318 316 315 314 313 314 311 302 295 292 289 285 282 276 258 226 218 187 295 271 259 262 270 272 286 284 250 220 214 219 212 211 226 233 229 237 243 241 243 253 259 238 260 285 233 180 133 181 231 216 220 252 254 278 278 264 266 276 290 262 236 244 249 257 243 255 247 230 227 190 177 184 183 181 179 171 162 149 141 137 136
318 318 318 317 317 317 316 316 316 316 316 316 319 315 308 305 302 294 282 255 200 168 251 212 189 216 273 275 268 265 284 297 302 279 228 209 211 210 213 225 231 228 225 221 228 223 220 247 259 237 251 231 213 187 208 240 162 215 252 239 256 277 268 261 260 262 249 255 250 241 246 240 244 247 234 234 202 177 186 185 173 168 162 149 138 138 136 134
316 316 314 314 316 316 316 315 314 316 317 318 326 328 324 329 326 312 283 244 233 257 279 254 237 249 263 272 269 273 287 287 293 271 222 205 208 209 212 222 229 226 207 160 207 216 193 200 241 229 223 219 226 227 227 249 260 255 281 273 262 269 269 269 268 273 241 224 247 236 237 240 238 240 236 232 210 175 179 168 161 163 152 143 140 138 134 133
315 314 313 314 314 315 315 313 310 312 315 315 325 331 334 349 345 326 315 286 278 278 275 270 261 257 262 266 263 274 292 286 283 259 219 205 206 207 211 212 210 220 210 182 189 207 182 203 237 228 216 213 222 230 228 241 250 249 260 268 273 269 267 272 272 272 227 198 259 248 232 239 235 232 237 225 192 172 166 150 159 160 142 140 139 133 133 138
316 314 315 314 314 318 315 311 308 306 307 305 310 323 340 349 336 313 315 296 288 287 278 274 264 258 264 264 259 265 276 274 270 256 223 203 203 202 197 194 180 210 219 179 174 232 209 232 242 228 213 211 228 235 222 230 240 244 248 262 273 269 280 280 268 260 216 182 276 265 228 230 232 225 234 226 206 214 183 164 162 156 141 136 136 135 139 143
317 317 317 315 317 320 315 311 306 297 294 292 298 332 357 3 357 324 308 284 288 289 275 263 253 250 258 259 256 253 247 247 248 248 235 198 194 197 186 180 183 201 208 173 182 199 232 251 235 221 212 203 236 246 229 241 246 239 239 253 264 257 282 285 279 304 294 264 265 258 219 222 239 234 245 249 148 80 156 161 158 152 144 140 141 144 145 148
318 318 316 316 320 321 320 314 304 290 287 284 294 344 3 12 13 348 315 275 288 286 273 263 249 247 253 253 250 233 221 228 230 239 236 196 186 192 190 184 181 196 206 190 193 194 235 252 219 184 209 203 228 248 236 239 253 247 229 230 247 237 228 251 283 328 318 305 277 192 153 227 254 235 253 299 71 80 108 131 133 134 138 141 145 148 152 158
318 317 315 318 319 321 324 315 305 293 281 277 298 329 349 8 7 348 324 316 291 281 280 265 236 242 250 246 235 215 211 224 224 228 227 199 188 184 189 193 183 208 214 193 198 202 241 253 219 174 217 209 217 243 228 200 232 263 235 220 217 203 222 258 302 345 348 322 308 100 110 257 293 240 246 326 69 81 100 114 120 127 136 142 146 152 161 167
318 316 317 319 318 322 327 319 324 311 287 281 294 305 318 351 4 346 319 19 307 266 275 222 208 232 235 215 208 197 196 231 225 226 221 204 197 186 183 192 178 212 210 189 201 205 241 248 211 195 219 211 215 242 231 185 198 259 237 210 195 170 241 284 310 339 343 282 278 96 125 236 323 323 250 75 91 96 93 108 126 137 143 148 151 159 166 169
320 318 318 320 322 324 326 333 336 324 311 299 283 286 301 322 7 350 322 27 303 243 164 187 194 200 206 195 184 171 162 227 214 224 214 199 197 191 186 185 174 209 198 162 208 224 233 237 222 210 216 213 216 241 231 180 174 249 234 204 196 186 262 275 292 287 245 269 304 17 109 123 323 279 133 95 105 108 107 122 136 142 148 151 155 163 166 168
321 319 317 319 325 321 319 331 344 340 330 310 283 274 300 320 344 354 97 46 282 232 128 194 198 232 215 179 171 171 184 155 166 221 210 194 192 190 186 186 182 209 202 165 215 251 223 218 224 211 208 213 212 230 224 177 179 240 225 204 211 222 238 248 264 270 271 290 304 322 40 74 284 271 52 97 115 119 122 143 149 147 150 151 155 161 163 166
320 320 317 315 319 312 309 323 339 339 310 306 293 268 293 330 318 45 88 269 290 322 344 191 193 219 167 160 175 190 201 159 154 211 198 189 193 195 200 205 195 215 217 175 207 258 247 234 238 212 198 209 216 231 217 178 205 234 212 218 233 214 228 240 238 240 310 256 259 280 350 77 274 291 356 89 128 145 145 155 161 155 154 155 157 159 161 163
317 319 313 307 313 306 301 317 327 306 287 300 318 273 271 359 60 63 64 245 288 308 308 112 275 215 153 149 187 207 213 215 172 161 175 183 192 196 202 209 207 215 237 211 225 251 264 266 263 227 211 211 206 222 202 185 205 197 156 239 279 285 237 235 241 159 114 237 251 248 188 133 290 294 302 129 155 154 144 149 177 170 159 159 160 160 160 162
315 316 308 301 305 299 296 317 319 260 276 317 8 346 193 61 61 93 215 275 302 279 335 24 321 305 159 162 189 202 212 231 153 131 153 178 186 195 185 202 214 226 308 287 267 273 279 272 270 231 226 215 186 214 205 190 192 144 130 168 293 310 11 32 330 77 120 240 257 241 168 119 147 257 275 289 177 158 153 161 176 177 167 166 164 161 162 165
318 313 300 291 294 296 300 309 253 233 256 307 0 21 134 70 33 187 242 322 330 248 12 353 316 325 285 209 189 188 198 217 167 135 146 154 172 201 188 183 191 198 277 266 264 299 294 258 260 242 228 193 156 225 284 347 67 129 132 101 117 288 357 7 301 146 176 240 252 238 146 111 228 244 314 324 167 158 155 158 163 159 157 163 164 163 166 168
326 309 292 285 294 303 307 292 242 220 224 246 314 11 93 88 231 226 242 284 318 357 350 334 327 331 302 242 219 189 193 209 189 159 163 158 171 202 216 213 172 153 215 224 227 277 292 284 282 268 245 167 139 171 249 314 113 143 160 147 164 213 117 286 274 270 241 240 265 271 139 140 279 323 348 344 120 141 135 136 143 143 148 160 166 166 168 171
332 308 296 294 320 341 333 280 232 206 213 224 276 52 92 130 236 240 243 251 287 326 332 336 331 325 308 246 204 176 187 227 183 150 162 151 166 200 229 236 197 145 156 203 217 202 231 286 271 216 244 183 151 173 184 179 165 190 192 150 161 165 152 215 226 192 235 245 296 323 116 162 172 349 339 16 93 121 133 140 143 146 157 167 169 168 170 176
334 310 310 322 71 35 18 283 204 190 196 188 104 69 141 199 255 251 255 270 301 324 327 333 329 314 314 298 206 168 153 211 21 50 169 167 173 193 198 218 215 171 133 179 241 188 185 248 253 231 216 184 186 202 173 139 156 239 169 107 175 190 154 151 179 167 160 139 325 343 60 182 124 49 355 70 98 111 133 141 139 145 159 166 169 172 172 175
339 315 325 187 160 57 42 71 152 163 161 139 99 83 204 213 235 224 277 317 338 341 335 336 342 326 318 327 262 231 136 126 62 24 306 200 185 192 186 204 216 186 160 172 216 196 178 248 276 282 253 210 204 203 163 151 177 259 124 152 215 181 130 125 195 84 75 79 289 347 94 13 86 49 10 79 99 102 128 136 133 143 157 163 170 176 173 173
0 1 25 134 163 120 77 79 107 135 128 104 102 208 223 227 234 253 313 326 325 334 345 340 338 325 313 343 330 298 338 47 94 110 335 311 294 245 216 232 116 164 197 197 210 235 195 250 285 287 283 257 216 201 192 172 155 125 196 212 203 73 86 113 135 29 59 130 275 357 102 183 115 70 348 82 104 111 125 129 130 142 157 167 175 177 173 172
22 50 67 93 133 144 121 86 96 116 101 79 95 238 231 243 280 300 307 312 315 321 333 300 270 268 316 337 333 325 341 356 329 185 117 8 307 282 265 287 73 66 305 204 192 255 190 237 288 271 255 282 234 152 310 285 183 153 186 185 110 100 21 79 120 134 130 158 278 342 23 192 107 67 307 6 84 112 123 123 131 147 167 174 176 176 173 171
13 63 77 78 103 134 138 113 115 113 81 73 229 265 253 261 284 288 288 292 298 298 287 252 237 270 319 301 310 329 263 195 239 244 152 90 244 255 313 288 323 21 355 67 156 261 113 176 281 292 283 4 29 50 349 312 322 18 33 21 66 134 160 164 149 149 145 152 201 332 346 314 113 302 288 34 17 10 84 114 135 156 174 176 173 174 176 174
351 66 94 99 95 113 144 153 153 132 85 136 209 240 274 282 283 283 286 287 283 278 271 262 266 285 295 277 272 291 225 169 154 201 296 30 257 257 219 257 302 12 359 18 113 267 14 130 241 294 339 44 28 325 111 78 16 42 49 31 358 359 120 140 156 128 128 139 158 164 257 270 291 312 341 108 87 44 73 85 99 128 142 146 156 170 181 216
5 77 118 154 120 73 175 173 174 145 126 216 230 241 278 290 286 287 294 298 291 277 271 269 267 262 271 279 272 278 288 181 136 133 97 3 285 252 218 198 109 51 360 10 33 91 351 126 195 288 359 64 181 176 108 94 81 85 95 99 193 174 131 130 236 299 100 125 158 159 184 268 286 302 341 113 123 126 122 122 111 107 111 104 117 178 198 247
83 69 121 156 192 286 167 174 244 66 148 256 285 289 295 295 289 294 305 313 306 283 272 268 255 242 252 270 276 331 349 291 166 154 170 185 190 205 209 189 169 153 142 344 308 248 156 98 101 260 261 119 135 109 101 99 90 82 65 10 79 114 105 125 185 252 74 85 102 117 125 230 261 278 309 85 99 104 107 112 107 105 109 102 95 134 193 203
54 74 118 113 16 354 122 95 335 6 230 277 287 291 296 291 282 293 303 309 306 288 283 285 275 265 266 275 313 354 356 2 139 142 140 186 209 210 202 185 171 152 129 157 271 296 68 75 49 308 299 327 143 91 67 66 77 75 30 354 19 31 159 156 174 182 134 124 112 89 108 218 254 281 73 77 61 60 75 86 87 84 83 79 78 89 124 163
57 106 124 96 357 324 128 163 283 283 273 286 292 295 297 279 259 287 303 297 294 289 282 289 299 293 268 268 296 334 348 17 77 107 116 193 233 221 195 162 138 118 113 176 199 192 38 131 82 54 13 340 286 257 12 18 49 76 8 338 4 17 23 100 142 87 112 196 168 132 154 235 260 313 79 78 61 46 59 80 88 86 83 82 83 85 90 96
70 106 131 107 58 37 85 167 196 237 280 310 314 300 303 289 281 304 304 281 278 285 274 280 311 334 345 356 360 352 8 35 101 151 176 218 308 325 175 139 113 99 122 144 161 144 133 165 116 104 141 175 201 221 243 355 59 71 23 5 15 24 28 46 123 83 106 242 79 105 151 185 230 35 61 74 74 61 55 77 89 89 87 89 89 89 92 98
78 79 144 114 57 45 47 44 20 336 279 331 332 293 298 292 302 319 319 286 302 325 317 312 347 9 13 15 33 20 8 11 61 73 43 333 357 18 45 66 44 27 83 85 66 92 109 67 105 122 153 176 185 213 218 146 103 93 55 31 23 20 33 62 97 84 165 151 47 78 143 133 130 67 67 74 80 74 53 82 95 94 91 93 95 96 98 99
85 90 111 312 350 19 29 18 15 8 258 168 50 297 304 303 310 334 348 323 327 342 359 13 13 27 19 9 48 27 351 357 47 54 4 329 303 26 43 56 35 11 42 74 50 65 101 27 23 103 147 244 215 194 175 105 102 111 100 62 44 36 46 59 55 331 153 119 78 165 144 128 136 117 92 100 108 103 50 64 91 96 98 100 100 100 101 102
63 130 95 74 270 312 25 345 340 4 346 182 107 315 316 333 347 357 336 308 331 5 27 17 9 28 27 13 71 41 352 3 30 18 340 336 334 16 28 44 36 22 28 47 34 59 117 53 354 36 21 333 322 114 95 87 90 87 84 83 76 71 74 75 38 311 158 145 166 157 131 110 114 107 97 103 110 112 97 83 93 98 100 102 101 100 101 101
59 87 59 49 44 201 81 309 304 13 3 304 23 340 327 357 6 357 315 310 351 13 28 25 351 13 29 25 73 69 22 32 9 339 322 340 339 51 43 360 29 32 31 33 22 36 97 45 357 41 55 10 2 60 94 91 86 72 56 43 59 81 93 90 73 67 76 68 98 116 102 73 46 51 75 79 85 98 101 96 96 97 96 97 97 97 97 97
59 43 355 19 35 104 100 309 306 53 5 358 62 317 303 19 11 341 327 346 357 357 17 34 353 353 30 30 58 92 57 83 266 278 254 355 337 77 115 225 194 29 26 40 3 5 66 51 335 35 83 17 352 18 95 96 85 69 45 15 11 50 78 82 87 91 78 64 77 91 87 67 12 9 49 64 74 88 91 89 90 93 95 96 93 91 93 94
78 60 7 14 12 283 182 314 327 73 14 358 62 255 268 46 48 287 318 333 351 350 354 20 7 357 14 17 27 29 325 322 266 261 265 278 276 252 241 187 150 109 40 60 17 355 51 103 329 33 89 43 331 335 106 96 78 57 32 5 353 10 62 65 71 89 105 115 111 97 87 83 14 40 62 54 54 73 79 80 86 89 92 94 92 91 92 92
83 85 79 92 53 333 351 331 350 48 37 324 319 310 327 324 201 157 309 316 336 356 355 14 35 22 2 350 338 316 311 309 295 287 287 280 270 271 269 244 157 120 138 123 95 354 86 121 103 64 84 44 300 285 134 89 65 40 359 334 322 327 75 70 46 33 57 116 123 114 118 115 77 81 85 65 47 53 62 71 82 87 89 90 90 91 91 90